SCP
0 0 1 0 0 0 0 -0 -0 0 0 0 -0 -0 0 0 1 1 1 1 1 0 0 0 0 0 0 0 0 0 0 0 0 0 0 0 0 0 0 0 0 0 0
0 0 2 2 1 0 0 0 -0 0 0 0 0 0 1 0 1 1 1 1 1 0 0 0 0 0 0 0 0 0 0 0 0 0 0 0 0 0 0 0 0 0 0
1 2 2 3 3 2 1 1 1 0 0 1 0 0 0 1 1 0 0 0 1 1 0 0 0 0 0 0 0 0 0 0 0 0 0 0 0 0 0 0 0 0 0
3 3 2 1 1 0 0 0 0 0 1 1 1 0 0 0 0 0 0 0 0 0 0 0 0 0 0 0 0 0 0 0 0 0 0 0 0 0 0 0 0 0 0
1 1 0 0 0 0 0 0 0 0 0 0 0 0 0 0 0 0 0 0 0 0 0 0 0 0 0 0 0 0 0 0 0 0 0 0 0 0 0 0 0 0 0
0 0 0 0 0 0 0 0 0 0 0 0 0 0 0 0 0 0 0 0 0 0 0 0 0 0 0 0 0 0 0 0 0 0 0 0 0 1 1 0 0 0 0
0 0 0 0 0 0 0 0 0 0 0 0 0 0 0 0 0 0 0 0 0 0 0 0 0 0 0 0 0 0 0 0 0 0 0 0 0 0 0 0 0 0 0
0 0 0 0 0 0 0 0 0 0 0 0 0 0 0 0 0 0 0 0 0 0 0 0 0 0 0 0 0 0 0 0 0 0 0 0 0 0 0 0 0 0 0
0 0 0 0 0 0 0 0 0 0 0 0 0 0 0 0 0 0 0 0 0 0 0 0 0 0 0 0 0 0 0 0 0 0 0 0 0 0 0 0 0 0 0
0 0 0 0 0 0 0 0 0 0 0 0 0 0 0 0 0 0 0 0 0 0 0 0 0 0 0 0 0 0 0 0 0 0 0 0 0 0 0 0 0 0 0
0 0 0 0 0 0 0 0 0 0 0 0 0 0 0 0 0 0 0 0 0 0 0 0 0 0 0 0 0 0 0 0 0 0 0 0 0 0 0 0 0 0 0
0 0 0 0 0 0 0 0 0 0 0 0 0 0 0 0 0 0 0 0 0 0 0 0 0 0 0 0 0 0 0 0 0 0 0 0 0 0 0 0 0 0 0
0 0 0 0 0 0 0 0 0 0 0 0 0 0 0 0 0 0 0 0 0 0 0 0 0 0 0 0 0 0 0 0 0 0 0 0 0 0 0 0 0 0 0
0 0 0 0 0 0 0 0 0 0 0 0 0 0 0 0 0 0 0 0 0 0 0 0 0 0 0 0 0 0 0 0 0 0 0 0 0 0 0 0 0 0 0
0 0 0 0 0 0 0 0 0 0 0 0 0 0 0 0 0 0 0 0 0 0 0 0 0 0 0 0 0 0 0 0 0 0 0 0 0 0 0 0 0 0 0
0 -0 -0 0 0 0 0 0 0 0 0 0 0 0 0 0 0 0 0 0 0 0 0 0 0 0 0 0 0 0 0 0 0 0 0 0 0 0 0 0 0 0 0
-0 -0 0 0 0 0 0 0 0 0 0 0 0 0 0 0 0 0 0 0 0 0 0 0 0 0 0 0 0 0 0 0 0 0 0 0 0 0 0 0 0 0 0
0 0 0 0 0 0 0 0 0 0 0 0 0 0 0 0 0 0 0 0 0 0 0 0 0 0 0 0 0 -0 0 0 0 0 0 0 0 0 0 0 0 0 0
0 0 0 0 0 0 0 0 0 0 0 0 0 0 0 0 0 0 0 0 0 0 0 0 0 0 0 0 0 0 0 0 0 0 0 0 0 0 0 0 0 0 0
0 0 0 0 0 0 0 0 0 0 0 0 0 0 0 0 0 0 0 0 0 0 0 0 0 0 0 0 0 0 0 0 0 0 0 0 0 0 0 0 0 0 0
0 0 0 0 0 0 0 0 0 0 0 0 0 0 0 0 0 0 0 0 0 0 0 0 0 0 0 -0 0 0 0 0 0 0 0 0 0 0 0 0 0 0 0
0 0 0 0 0 0 0 0 0 0 0 0 0 0 0 0 0 0 0 0 0 0 0 -0 -0 0 0 0 0 0 0 0 0 0 0 0 0 0 0 0 0 0 0
0 0 0 0 0 0 0 0 0 0 0 0 0 0 0 0 0 0 0 0 0 0 0 0 0 0 0 0 0 0 -0 -0 0 0 0 0 0 0 0 0 0 0 0
0 0 0 0 0 0 0 0 0 0 0 0 0 0 0 0 0 0 0 0 0 -0 0 0 0 0 0 0 0 0 0 0 0 0 0 0 0 0 0 0 0 0 0
0 0 0 0 0 0 0 0 0 0 0 0 0 0 0 0 0 0 0 0 0 -0 0 0 0 0 0 0 0 0 0 0 -0 -0 0 0 0 0 0 0 0 0 0
0 0 0 0 0 0 0 0 0 0 0 0 0 0 0 0 0 0 0 0 0 -0 -0 0 0 0 0 0 0 0 0 0 0 0 0 0 0 0 0 0 0 0 0
Wind_Speed_500mb
45 50 45 56 64 65 59 54 50 46 51 48 50 47 42 35 26 26 21 20 19 20 20 23 25 26 36 39 47 44 43 27 33 47 49 49 45 50 38 45 50 39 46
55 54 54 76 71 61 57 53 47 47 38 39 45 42 37 29 24 26 25 24 20 19 16 22 23 24 27 36 40 39 35 37 37 52 54 62 53 40 40 46 49 55 34
43 46 65 77 69 60 55 54 59 51 50 43 38 33 32 32 30 29 31 23 20 17 22 23 23 29 28 28 29 31 33 40 35 32 33 19 17 21 27 27 28 48 49
61 69 73 69 70 68 67 61 58 49 45 42 42 46 41 48 40 36 28 21 20 16 15 14 16 18 17 21 29 25 25 32 34 32 40 43 47 38 25 31 37 47 59
80 85 86 81 75 74 69 65 54 51 48 42 45 46 40 40 38 26 19 13 14 14 12 10 11 13 18 20 20 25 31 36 44 46 46 51 54 53 52 63 65 56 69
87 81 72 67 61 54 56 56 57 50 44 39 37 36 37 35 27 20 18 21 21 19 17 15 17 20 23 27 30 34 37 42 46 48 55 59 59 61 56 61 70 80 87
74 73 62 50 43 35 34 33 32 38 36 35 33 30 29 26 21 20 19 16 14 15 16 19 23 29 34 39 43 48 51 54 55 56 61 65 66 69 64 60 61 67 78
62 57 53 48 45 41 36 36 36 40 34 33 31 27 24 20 18 13 11 13 14 17 23 28 33 37 40 42 45 49 52 54 58 65 69 73 76 76 76 69 68 70 69
80 73 64 58 52 43 32 27 26 29 26 25 23 19 14 11 8 8 11 15 19 24 29 33 36 40 43 45 46 48 50 53 57 61 64 68 70 70 72 72 69 63 66
88 80 68 57 44 36 30 24 19 19 18 13 8 5 1 2 6 11 16 20 25 30 33 36 40 41 39 38 38 40 42 45 47 51 55 64 70 72 73 73 74 76 71
80 76 64 46 32 29 31 30 25 18 12 8 7 7 8 11 15 19 21 25 29 31 33 38 36 36 37 36 40 41 43 42 45 46 46 50 51 54 52 57 69 82 85
82 69 59 47 41 39 34 29 25 17 11 4 7 12 16 20 23 24 25 27 28 34 36 34 38 39 39 40 44 43 41 45 47 50 53 54 53 55 57 63 64 63 63
66 65 65 59 50 40 31 19 12 6 6 7 8 9 17 22 22 24 26 29 30 31 30 35 41 46 44 49 42 45 47 48 53 57 63 67 60 61 65 70 66 64 68
60 75 76 63 48 36 23 12 4 9 14 15 16 15 13 15 18 21 19 19 26 31 34 42 49 49 42 39 34 33 38 43 46 47 48 51 56 60 62 65 67 65 71
65 73 68 56 42 28 17 5 7 15 19 19 14 16 13 13 18 19 21 26 28 35 45 50 46 30 28 28 32 33 40 48 55 59 61 63 62 61 58 58 55 58 71
50 62 56 45 33 20 9 6 12 17 20 17 19 21 19 21 25 28 31 35 40 46 45 42 25 22 27 29 30 35 48 57 65 69 68 70 69 69 67 61 56 57 60
56 54 43 31 21 9 3 12 17 20 23 21 20 27 30 30 33 37 41 41 39 36 38 15 22 28 32 36 39 49 52 57 57 58 63 65 64 66 73 72 66 64 59
53 43 33 21 8 4 9 12 16 18 19 22 25 30 35 38 39 38 37 31 27 26 17 21 25 29 33 39 54 51 44 47 53 61 76 76 73 70 70 77 75 65 62
41 30 19 10 5 5 7 9 11 14 17 22 24 25 25 25 23 20 19 19 22 20 22 27 33 36 36 45 53 38 47 59 62 68 69 73 73 63 58 54 74 78 68
29 22 16 7 8 12 12 11 12 14 18 23 24 20 19 15 10 13 17 19 20 23 25 33 34 38 42 50 36 45 56 64 70 69 67 60 57 57 52 56 58 77 73
26 21 21 21 21 20 19 15 16 18 19 26 25 17 14 10 10 11 14 19 22 26 29 33 36 40 44 49 31 46 58 59 61 57 79 63 71 68 59 52 50 60 66
30 22 21 20 20 22 23 20 20 21 20 27 25 15 9 5 6 13 16 19 26 32 34 40 39 40 43 44 36 51 42 48 50 59 65 69 57 61 57 52 40 45 49
31 21 16 17 18 20 22 20 24 28 27 27 32 22 11 7 10 16 19 21 23 26 32 38 44 46 46 49 36 47 48 45 48 52 60 57 65 67 54 53 37 30 24
30 20 14 9 11 15 21 20 19 26 33 32 39 37 25 13 10 13 20 20 24 30 33 38 46 49 52 54 45 44 39 44 47 45 52 63 66 67 71 66 55 40 26
21 10 8 9 10 13 17 17 13 16 22 31 29 37 46 39 26 25 32 29 33 33 30 35 39 47 48 46 32 37 49 41 48 55 57 57 73 67 64 66 69 63 54
16 18 17 10 7 11 15 13 16 19 27 29 22 25 31 33 39 40 38 39 36 43 36 27 26 28 35 33 25 20 28 39 45 56 67 75 75 83 74 65 64 69 62
Wind_Direction_500mb
228 224 201 179 175 179 172 161 157 161 186 195 201 212 217 224 222 217 238 247 232 240 253 260 250 259 266 274 270 279 298 277 281 280 288 281 284 281 277 287 275 269 282
223 222 187 177 182 175 169 161 161 160 174 181 188 200 193 208 209 232 227 225 249 269 264 258 257 260 266 269 269 275 282 276 285 279 272 280 288 287 267 278 278 279 270
195 177 174 180 174 161 164 167 168 176 177 183 188 199 201 204 213 215 216 229 237 237 262 259 256 262 269 271 267 270 276 273 276 276 266 273 276 291 279 279 279 268 270
152 154 157 164 169 172 183 182 185 188 190 190 195 209 211 210 204 210 209 227 244 247 239 238 237 246 259 271 270 261 257 260 266 268 264 267 273 292 294 278 276 269 272
152 147 148 153 165 175 182 185 188 190 197 208 205 207 195 193 188 188 198 190 193 197 205 231 249 249 256 260 248 249 254 259 257 262 268 271 276 279 275 279 277 272 280
140 138 138 144 146 150 168 180 185 189 191 187 179 184 192 192 191 191 184 177 185 194 212 231 253 268 270 268 266 264 267 268 265 268 269 273 279 280 275 272 275 275 269
139 140 138 136 134 140 149 161 169 161 168 180 181 190 197 200 201 196 195 195 206 226 248 257 261 265 266 269 269 270 270 270 270 265 264 264 263 267 270 279 282 276 275
138 131 129 128 126 126 129 132 136 136 144 151 154 158 166 179 193 210 238 264 284 292 292 293 294 294 290 285 282 280 278 275 271 268 266 267 266 268 272 276 281 287 285
138 133 129 125 124 120 115 118 126 124 130 133 139 148 160 183 213 248 274 288 298 300 304 309 309 306 304 301 297 293 289 284 279 276 273 273 272 272 273 273 274 281 286
134 132 128 124 123 122 120 121 119 117 113 112 110 112 143 284 307 317 319 319 318 321 322 322 317 314 313 311 305 302 299 292 289 289 287 280 275 273 273 275 276 275 280
138 137 129 120 126 137 134 124 117 109 91 62 25 354 340 335 333 333 330 325 326 324 325 326 326 321 318 316 318 317 314 305 305 304 296 298 299 292 288 285 283 279 277
140 135 122 132 140 141 141 136 129 126 106 54 347 331 326 324 327 326 326 328 329 330 327 321 325 320 318 315 313 307 306 301 301 299 295 296 297 292 287 292 293 286 284
133 130 128 142 148 152 152 153 162 197 244 274 273 296 312 318 321 322 329 333 331 320 309 315 316 316 314 315 315 313 311 310 303 297 292 292 293 286 286 291 291 288 287
130 137 139 144 147 148 151 166 212 286 288 286 283 282 291 308 311 318 321 305 303 305 305 310 312 312 314 320 323 328 323 317 315 312 307 302 297 294 294 290 288 287 286
139 143 142 145 152 159 167 186 289 289 283 284 275 252 259 267 264 267 279 287 291 297 303 307 312 322 325 333 333 331 325 323 318 314 311 305 297 292 288 287 294 291 287
143 143 148 150 152 158 176 284 293 289 286 272 242 239 247 256 264 271 278 287 296 303 305 314 326 333 332 334 328 326 327 320 314 316 318 316 309 298 286 279 282 284 278
142 145 145 145 150 160 291 295 295 291 288 287 272 256 258 264 270 277 285 296 303 313 325 345 331 324 330 337 335 328 319 318 325 327 325 323 324 316 295 284 273 273 277
146 140 140 142 139 337 315 301 296 298 299 294 285 278 274 272 275 282 288 293 312 329 340 327 324 321 331 335 336 325 327 328 332 325 326 319 317 315 316 285 280 276 268
140 134 126 105 49 326 310 323 325 327 321 315 308 299 289 288 287 287 302 319 324 327 315 324 329 326 326 337 332 329 333 336 339 337 333 327 321 315 308 290 268 272 269
124 121 118 118 101 66 39 10 354 350 344 340 329 320 309 310 317 314 332 326 319 312 304 305 319 324 331 336 335 338 338 339 337 339 347 347 342 329 311 310 278 267 264
110 109 107 99 72 47 29 15 3 350 357 353 344 334 322 312 315 322 308 315 303 296 301 307 313 325 334 335 337 343 345 340 338 349 350 2 360 345 329 313 286 268 264
112 105 97 79 54 35 20 16 13 11 16 8 0 347 330 329 303 297 307 301 296 301 308 307 316 328 336 339 348 345 348 337 339 348 356 359 2 359 345 334 309 282 259
125 112 83 64 41 23 15 20 35 40 31 31 25 17 2 323 317 325 318 320 311 324 334 334 338 339 344 352 353 359 344 343 345 346 10 13 24 22 7 2 358 345 300
122 121 107 70 58 20 10 29 52 54 45 40 36 30 27 16 358 349 352 348 340 343 344 335 345 351 352 355 359 360 354 5 2 8 24 24 26 26 24 13 358 347 331
133 144 124 103 71 8 9 19 56 45 46 44 45 35 35 41 51 42 35 32 16 360 348 349 351 349 354 2 2 16 18 15 23 19 16 14 17 10 14 14 18 8 350
114 117 114 106 54 17 32 81 62 46 42 37 47 35 44 39 46 52 50 44 39 36 29 14 1 2 8 1 8 14 5 17 30 33 26 24 24 17 17 3 -0 11 21
Wind_Speed_850mb
45 50 45 56 64 65 59 54 50 46 51 48 50 47 42 35 26 26 21 20 19 20 20 23 25 26 36 39 47 44 43 27 33 47 49 49 45 50 38 45 50 39 46
55 54 54 76 71 61 57 53 47 47 38 39 45 42 37 29 24 26 25 24 20 19 16 22 23 24 27 36 40 39 35 37 37 52 54 62 53 40 40 46 49 55 34
43 46 65 77 69 60 55 54 59 51 50 43 38 33 32 32 30 29 31 23 20 17 22 23 23 29 28 28 29 31 33 40 35 32 33 19 17 21 27 27 28 48 49
61 69 73 69 70 68 67 61 58 49 45 42 42 46 41 48 40 36 28 21 20 16 15 14 16 18 17 21 29 25 25 32 34 32 40 43 47 38 25 31 37 47 59
80 85 86 81 75 74 69 65 54 51 48 42 45 46 40 40 38 26 19 13 14 14 12 10 11 13 18 20 20 25 31 36 44 46 46 51 54 53 52 63 65 56 69
87 81 72 67 61 54 56 56 57 50 44 39 37 36 37 35 27 20 18 21 21 19 17 15 17 20 23 27 30 34 37 42 46 48 55 59 59 61 56 61 70 80 87
74 73 62 50 43 35 34 33 32 38 36 35 33 30 29 26 21 20 19 16 14 15 16 19 23 29 34 39 43 48 51 54 55 56 61 65 66 69 64 60 61 67 78
62 57 53 48 45 41 36 36 36 40 34 33 31 27 24 20 18 13 11 13 14 17 23 28 33 37 40 42 45 49 52 54 58 65 69 73 76 76 76 69 68 70 69
80 73 64 58 52 43 32 27 26 29 26 25 23 19 14 11 8 8 11 15 19 24 29 33 36 40 43 45 46 48 50 53 57 61 64 68 70 70 72 72 69 63 66
88 80 68 57 44 36 30 24 19 19 18 13 8 5 1 2 6 11 16 20 25 30 33 36 40 41 39 38 38 40 42 45 47 51 55 64 70 72 73 73 74 76 71
80 76 64 46 32 29 31 30 25 18 12 8 7 7 8 11 15 19 21 25 29 31 33 38 36 36 37 36 40 41 43 42 45 46 46 50 51 54 52 57 69 82 85
82 69 59 47 41 39 34 29 25 17 11 4 7 12 16 20 23 24 25 27 28 34 36 34 38 39 39 40 44 43 41 45 47 50 53 54 53 55 57 63 64 63 63
66 65 65 59 50 40 31 19 12 6 6 7 8 9 17 22 22 24 26 29 30 31 30 35 41 46 44 49 42 45 47 48 53 57 63 67 60 61 65 70 66 64 68
60 75 76 63 48 36 23 12 4 9 14 15 16 15 13 15 18 21 19 19 26 31 34 42 49 49 42 39 34 33 38 43 46 47 48 51 56 60 62 65 67 65 71
65 73 68 56 42 28 17 5 7 15 19 19 14 16 13 13 18 19 21 26 28 35 45 50 46 30 28 28 32 33 40 48 55 59 61 63 62 61 58 58 55 58 71
50 62 56 45 33 20 9 6 12 17 20 17 19 21 19 21 25 28 31 35 40 46 45 42 25 22 27 29 30 35 48 57 65 69 68 70 69 69 67 61 56 57 60
56 54 43 31 21 9 3 12 17 20 23 21 20 27 30 30 33 37 41 41 39 36 38 15 22 28 32 36 39 49 52 57 57 58 63 65 64 66 73 72 66 64 59
53 43 33 21 8 4 9 12 16 18 19 22 25 30 35 38 39 38 37 31 27 26 17 21 25 29 33 39 54 51 44 47 53 61 76 76 73 70 70 77 75 65 62
41 30 19 10 5 5 7 9 11 14 17 22 24 25 25 25 23 20 19 19 22 20 22 27 33 36 36 45 53 38 47 59 62 68 69 73 73 63 58 54 74 78 68
29 22 16 7 8 12 12 11 12 14 18 23 24 20 19 15 10 13 17 19 20 23 25 33 34 38 42 50 36 45 56 64 70 69 67 60 57 57 52 56 58 77 73
26 21 21 21 21 20 19 15 16 18 19 26 25 17 14 10 10 11 14 19 22 26 29 33 36 40 44 49 31 46 58 59 61 57 79 63 71 68 59 52 50 60 66
30 22 21 20 20 22 23 20 20 21 20 27 25 15 9 5 6 13 16 19 26 32 34 40 39 40 43 44 36 51 42 48 50 59 65 69 57 61 57 52 40 45 49
31 21 16 17 18 20 22 20 24 28 27 27 32 22 11 7 10 16 19 21 23 26 32 38 44 46 46 49 36 47 48 45 48 52 60 57 65 67 54 53 37 30 24
30 20 14 9 11 15 21 20 19 26 33 32 39 37 25 13 10 13 20 20 24 30 33 38 46 49 52 54 45 44 39 44 47 45 52 63 66 67 71 66 55 40 26
21 10 8 9 10 13 17 17 13 16 22 31 29 37 46 39 26 25 32 29 33 33 30 35 39 47 48 46 32 37 49 41 48 55 57 57 73 67 64 66 69 63 54
16 18 17 10 7 11 15 13 16 19 27 29 22 25 31 33 39 40 38 39 36 43 36 27 26 28 35 33 25 20 28 39 45 56 67 75 75 83 74 65 64 69 62
Wind_Direction_850mb
228 224 201 179 175 179 172 161 157 161 186 195 201 212 217 224 222 217 238 247 232 240 253 260 250 259 266 274 270 279 298 277 281 280 288 281 284 281 277 287 275 269 282
223 222 187 177 182 175 169 161 161 160 174 181 188 200 193 208 209 232 227 225 249 269 264 258 257 260 266 269 269 275 282 276 285 279 272 280 288 287 267 278 278 279 270
195 177 174 180 174 161 164 167 168 176 177 183 188 199 201 204 213 215 216 229 237 237 262 259 256 262 269 271 267 270 276 273 276 276 266 273 276 291 279 279 279 268 270
152 154 157 164 169 172 183 182 185 188 190 190 195 209 211 210 204 210 209 227 244 247 239 238 237 246 259 271 270 261 257 260 266 268 264 267 273 292 294 278 276 269 272
152 147 148 153 165 175 182 185 188 190 197 208 205 207 195 193 188 188 198 190 193 197 205 231 249 249 256 260 248 249 254 259 257 262 268 271 276 279 275 279 277 272 280
140 138 138 144 146 150 168 180 185 189 191 187 179 184 192 192 191 191 184 177 185 194 212 231 253 268 270 268 266 264 267 268 265 268 269 273 279 280 275 272 275 275 269
139 140 138 136 134 140 149 161 169 161 168 180 181 190 197 200 201 196 195 195 206 226 248 257 261 265 266 269 269 270 270 270 270 265 264 264 263 267 270 279 282 276 275
138 131 129 128 126 126 129 132 136 136 144 151 154 158 166 179 193 210 238 264 284 292 292 293 294 294 290 285 282 280 278 275 271 268 266 267 266 268 272 276 281 287 285
138 133 129 125 124 120 115 118 126 124 130 133 139 148 160 183 213 248 274 288 298 300 304 309 309 306 304 301 297 293 289 284 279 276 273 273 272 272 273 273 274 281 286
134 132 128 124 123 122 120 121 119 117 113 112 110 112 143 284 307 317 319 319 318 321 322 322 317 314 313 311 305 302 299 292 289 289 287 280 275 273 273 275 276 275 280
138 137 129 120 126 137 134 124 117 109 91 62 25 354 340 335 333 333 330 325 326 324 325 326 326 321 318 316 318 317 314 305 305 304 296 298 299 292 288 285 283 279 277
140 135 122 132 140 141 141 136 129 126 106 54 347 331 326 324 327 326 326 328 329 330 327 321 325 320 318 315 313 307 306 301 301 299 295 296 297 292 287 292 293 286 284
133 130 128 142 148 152 152 153 162 197 244 274 273 296 312 318 321 322 329 333 331 320 309 315 316 316 314 315 315 313 311 310 303 297 292 292 293 286 286 291 291 288 287
130 137 139 144 147 148 151 166 212 286 288 286 283 282 291 308 311 318 321 305 303 305 305 310 312 312 314 320 323 328 323 317 315 312 307 302 297 294 294 290 288 287 286
139 143 142 145 152 159 167 186 289 289 283 284 275 252 259 267 264 267 279 287 291 297 303 307 312 322 325 333 333 331 325 323 318 314 311 305 297 292 288 287 294 291 287
143 143 148 150 152 158 176 284 293 289 286 272 242 239 247 256 264 271 278 287 296 303 305 314 326 333 332 334 328 326 327 320 314 316 318 316 309 298 286 279 282 284 278
142 145 145 145 150 160 291 295 295 291 288 287 272 256 258 264 270 277 285 296 303 313 325 345 331 324 330 337 335 328 319 318 325 327 325 323 324 316 295 284 273 273 277
146 140 140 142 139 337 315 301 296 298 299 294 285 278 274 272 275 282 288 293 312 329 340 327 324 321 331 335 336 325 327 328 332 325 326 319 317 315 316 285 280 276 268
140 134 126 105 49 326 310 323 325 327 321 315 308 299 289 288 287 287 302 319 324 327 315 324 329 326 326 337 332 329 333 336 339 337 333 327 321 315 308 290 268 272 269
124 121 118 118 101 66 39 10 354 350 344 340 329 320 309 310 317 314 332 326 319 312 304 305 319 324 331 336 335 338 338 339 337 339 347 347 342 329 311 310 278 267 264
110 109 107 99 72 47 29 15 3 350 357 353 344 334 322 312 315 322 308 315 303 296 301 307 313 325 334 335 337 343 345 340 338 349 350 2 360 345 329 313 286 268 264
112 105 97 79 54 35 20 16 13 11 16 8 0 347 330 329 303 297 307 301 296 301 308 307 316 328 336 339 348 345 348 337 339 348 356 359 2 359 345 334 309 282 259
125 112 83 64 41 23 15 20 35 40 31 31 25 17 2 323 317 325 318 320 311 324 334 334 338 339 344 352 353 359 344 343 345 346 10 13 24 22 7 2 358 345 300
122 121 107 70 58 20 10 29 52 54 45 40 36 30 27 16 358 349 352 348 340 343 344 335 345 351 352 355 359 360 354 5 2 8 24 24 26 26 24 13 358 347 331
133 144 124 103 71 8 9 19 56 45 46 44 45 35 35 41 51 42 35 32 16 360 348 349 351 349 354 2 2 16 18 15 23 19 16 14 17 10 14 14 18 8 350
114 117 114 106 54 17 32 81 62 46 42 37 47 35 44 39 46 52 50 44 39 36 29 14 1 2 8 1 8 14 5 17 30 33 26 24 24 17 17 3 -0 11 21